Weather History for Casper, WY

Change the Weather History Date:

Saturday, February 2, 2013

  Actual Average Record
Temperature  
Mean Temperature 34 °F 25 °F  
Max Temperature 48 °F 35 °F 56 °F (1954)
Min Temperature 20 °F 14 °F -27 °F (1989)
Degree Days  
Heating Degree Days 31 40  
Month to date heating degree days 66 80  
Since 1 July heating degree days 4017 4457  
Cooling Degree Days 0 0  
Month to date cooling degree days 0 0  
Year to date cooling degree days 0 0  
Moisture  
Dew Point 14 °F    
Average Humidity 54    
Maximum Humidity 84    
Minimum Humidity 23    
Precipitation  
Precipitation 0.00 in 0.02 in 0.30 in (2003)
Month to date precipitation T 0.04  
Year to date precipitation 0.27 0.55  
Snow  
Snow 0.00 in 0.40 in - ()
Month to date snowfall 0.0 0.7  
Since 1 July snowfall 23.2 40.3  
Snow Depth -    
Sea Level Pressure  
Sea Level Pressure 30.32 in    
Wind  
Wind Speed 13 mph (WSW)    
Max Wind Speed 26 mph    
Max Gust Speed 32 mph    
Visibility 10 miles    
Events      
T = Trace of Precipitation, MM = Missing Value Source: NWS Daily Summary

Daily Weather History Graph

Daily Weather History Graph

Search for Another Location

Airport:

Trip Planner

Search our weather history database for the weather conditions in past years. The results will help you decide how hot, cold, wet, or windy it might be!

Date:

Astronomy

Feb. 02, 2013 Rise Set
Actual Time 7:19 AM MST 5:20 PM MST
Civil Twilight 6:49 AM MST 5:50 PM MST
Nautical Twilight 6:15 AM MST 6:24 PM MST
Astronomical Twilight 5:42 AM MST 6:57 PM MST
Moon No Moon Rise 10:20 AM MST (2/2)
Length of Visible Light 11h 01m
Length of Day
10h 01m
Waning Gibbous, 59% of the Moon is Illuminated
Feb 2
Waning Gibbous
Feb 3
Last Quarter
Feb 10
New
Feb 17
First Quarter
Feb 25
Full

Hourly Weather History & Observations

Time (MST) Temp. Windchill Dew Point Humidity Pressure Visibility Wind Dir Wind Speed Gust Speed Precip Events Conditions
12:53 AM 23.0 °F 11.7 °F 16.0 °F 74% 30.32 in - SW 11.5 mph - N/A   Clear
1:53 AM 21.0 °F 10.6 °F 14.0 °F 74% 30.32 in - WSW 9.2 mph - N/A   Clear
2:53 AM 21.0 °F 9.3 °F 12.9 °F 71% 30.33 in - WSW 11.5 mph - N/A   Clear
3:53 AM 23.0 °F 12.4 °F 12.9 °F 65% 30.32 in - SW 10.4 mph - N/A   Clear
4:53 AM 23.0 °F 11.1 °F 12.2 °F 63% 30.24 in - WSW 12.7 mph - N/A   Clear
5:53 AM 21.9 °F 9.8 °F 12.9 °F 68% 30.35 in 10.0 mi SW 12.7 mph - N/A   Clear
6:53 AM 23.0 °F 10.1 °F 14.0 °F 68% 30.35 in 10.0 mi SW 15.0 mph - N/A   Clear
7:53 AM 24.1 °F 9.4 °F 14.0 °F 65% 30.36 in 10.0 mi SW 20.7 mph 26.5 mph N/A   Clear
8:53 AM 28.0 °F 14.6 °F 15.1 °F 58% 30.35 in 10.0 mi SW 20.7 mph 27.6 mph N/A   Clear
9:53 AM 32.0 °F 19.2 °F 16.0 °F 52% 30.35 in 10.0 mi SW 23.0 mph 29.9 mph N/A   Clear
10:53 AM 36.0 °F 24.7 °F 16.0 °F 44% 30.37 in 10.0 mi SW 21.9 mph 29.9 mph N/A   Clear
11:53 AM 41.0 °F 33.1 °F 17.1 °F 38% 30.35 in 10.0 mi SW 15.0 mph 26.5 mph N/A   Clear
12:25 PM 44.6 °F 37.4 °F 12.2 °F 27% 30.28 in 10.0 mi West 16.1 mph 21.9 mph N/A   Clear
12:53 PM 46.0 °F 39.6 °F 12.0 °F 25% 30.31 in 10.0 mi West 15.0 mph 21.9 mph N/A   Clear
1:53 PM 48.0 °F - 12.0 °F 24% 30.30 in 10.0 mi West 10.4 mph - N/A   Clear
2:53 PM 46.9 °F - 10.0 °F 22% 30.30 in 10.0 mi WNW 9.2 mph - N/A   Clear
3:53 PM 46.0 °F 40.6 °F 10.9 °F 24% 30.29 in 10.0 mi WNW 11.5 mph - N/A   Clear
4:53 PM 39.9 °F 35.1 °F 12.9 °F 33% 30.30 in 10.0 mi NW 6.9 mph - N/A   Clear
5:53 PM 30.0 °F 21.1 °F 12.9 °F 49% 30.36 in 10.0 mi SSW 10.4 mph - N/A   Clear
6:53 PM 30.9 °F 27.5 °F 15.1 °F 52% 30.34 in 10.0 mi SSW 3.5 mph - N/A   Clear
7:53 PM 28.9 °F 21.1 °F 18.0 °F 64% 30.34 in 10.0 mi West 8.1 mph - N/A   Clear
8:53 PM 28.0 °F 18.1 °F 18.0 °F 66% 30.32 in 10.0 mi SW 11.5 mph - N/A   Clear
9:53 PM 30.0 °F 21.1 °F 18.0 °F 61% 30.28 in 10.0 mi WSW 10.4 mph - N/A   Clear
10:53 PM 28.9 °F 21.9 °F 17.1 °F 61% 30.26 in 10.0 mi WSW 6.9 mph - N/A   Clear
11:53 PM 30.9 °F 21.7 °F 18.0 °F 59% 30.23 in 10.0 mi SW 11.5 mph - N/A   Clear